Regional Weather Roundup
Issued by NWS Sioux Falls, SD

Home | Current Version | Previous Version | Graphics & Text | Print | Product List | Glossary On
Versions: 1 2 3 4 5 6 7 8 9 10 11 12 13 14 15 16 17 18 19 20 21 22 23 24 25 26 27 28 29 30 31 32 33 34 35 36 37 38 39 40 41 42 43 44 45 46 47 48 49 50
000
ASUS43 KFSD 060810
RWRFSD

WEATHER ROUNDUP FOR SE SOUTH DAKOTA/SW MINNESOTA/NW IOWA
NATIONAL WEATHER SERVICE SIOUX FALLS SD
200 AM CST FRI MAR 06 2015

NOTE: "FAIR" INDICATES FEW OR NO CLOUDS BELOW 12,000 FEET WITH NO
SIGNIFICANT WEATHER AND OR OBSTRUCTIONS TO VISIBILITY.


SDZ038>040-050-052>070-060900-
SOUTHEAST SOUTH DAKOTA

CITY           SKY/WX    TMP DP  RH WIND       PRES   REMARKS
CHAMBERLAIN    PTCLDY    25  19  76 W6        30.11R WCI  18
HURON          CLEAR     13   6  74 SE3       30.09S
MADISON        FAIR      18   9  68 S10       30.08F WCI   6
MITCHELL       CLEAR     19   8  62 SW7       30.11S WCI  10
SIOUX FALLS    CLEAR     21   8  57 SW5       30.11F WCI  15
WINNER         FAIR      31  17  56 W8        30.13S WCI  23
YANKTON        CLEAR     28   7  40 SW8       30.14S WCI  20
$$

MNZ071-072-080-081-089-090-097-098-060900-
SOUTHWEST MINNESOTA

CITY           SKY/WX    TMP DP  RH WIND       PRES   REMARKS
FAIRMONT       CLEAR     12   3  67 S18       30.16F WCI  -5
JACKSON        CLEAR     18   7  62 S16       30.15F WCI   3
LUVERNE        CLEAR     14   9  79 S3        30.14F
MARSHALL       CLEAR     19   7  58 SW20G26   30.09F WCI   4
MONTEVIDEO     CLEAR     14   9  79 S5        30.10F WCI   6
PIPESTONE      CLEAR     16   9  73 S8        30.10S WCI   5
REDWOOD FALLS  CLEAR     13   5  70 S8        30.13F WCI   2
TRACY          CLEAR     20  10  63 SW23G29   30.10F WCI   3
WINDOM         CLEAR     18   7  62 S14G21    30.14R WCI   4
WORTHINGTON    CLEAR     18   7  62 S17       30.15S WCI   2
$$

IAZ001>003-012>014-020>022-031-032-NEZ013-014-SDZ071-060900-
NORTHWEST IOWA

CITY           SKY/WX    TMP DP  RH WIND       PRES   REMARKS
CHEROKEE       CLEAR     20   9  61 S8        30.19F WCI  11
DENISON        CLOUDY    25  10  54 S17G26    30.20F WCI  11
ESTHERVILLE    CLEAR     12   5  73 S14       30.17F WCI  -3
LE MARS        CLEAR     21  10  63 S9        30.18F WCI  11
ORANGE CITY    CLEAR     19   9  63 S12       30.15F WCI   7
SHELDON        CLEAR     19   9  63 S14       30.14F WCI   6
SIOUX CITY     MOCLDY    26  10  50 S12       30.19F WCI  16
SPENCER        CLEAR     15   6  67 S12       30.17F WCI   2
STORM LAKE     MOCLDY    19   9  63 S14G21    30.19F WCI   6
$$

ABBREVIATIONS USED IN REMARKS
   TC - TEMPERATURE IN CELSIUS
  WCI - WIND CHILL INDEX
   HX - HEAT INDEX
  VSB - VISIBILITY



USA.gov is the U.S. government's official web portal to all federal, state and local government web resources and services.